View from above orbital plane
|
View from above satellite
|
Ground track
|
The orbit data is extracted from the following two-line orbital elements,
1 18187U 87060A 21057.68379095 -.00000079 00000-0 80870-5 0 9993
2 18187 65.0109 49.2112 0017956 282.0567 77.8505 14.31119136757028
Epoch (UTC): | 26 February 2021 16:24:39 |
Eccentricity: | 0.0017956 |
inclination: | 65.0109° |
perigee height: | 775 km |
apogee height: | 801 km |
right ascension of ascending node: | 49.2112° |
argument of perigee: | 282.0567° |
revolutions per day: | 14.31119136 |
mean anomaly at epoch: | 77.8505° |
orbit number at epoch: | 75702 |
The dashed part of the orbit path shows where the satellite is in the earth's shadow,
|
|